STARLINK-30875, 58224

Orbit data source: Space-Track

STARLINK-30875, 58224 is a payload satellite owned by SpaceX/Seattle (US) in LEO that was launched on Fri, 03 Nov 2023 UTC via an FALCON 9 launch vehicle from the Air Force Eastern Test Range (AFETR). Payload-class satellites include a variety of spacecraft equipped with specific instruments for various scientific and technological missions. These include communications satellites like Starlink; space stations such as the ISS; scientific satellites like the Hubble; Earth observation satellites from companies like Planet Labs, Umbra, and HawkEye 360; GPS; miniature CubeSats for education and research; and military/defense satellites.

Loading next visibility...
Identifier
58224, 2023-170U
Orbit
LEO
Country
Flag of USUS
Related business
Manufacturer
SpaceX/Seattle
Mission
Operational Commercial Communications
Bus & Motor
STARLINK V2M, Unknown motor
Mass
730 kg wet, ~700 kg dry
Launch date (UTC)
2023-11-03 (3 years ago)
Launch vehicle
FALCON 9
Launch site
Air Force Eastern Test Range (AFETR)
Object type
Payload
Rocket body
Debris
Shape & HBR
Box + 2 Pan, 17.7 m
Radar Cross Section
33.884 m², Large (>1 m²)

Expand to show TLE details & history
Last TLE update: 2 days ago

TLE from 2 days ago
0 STARLINK-30875
1 58224U 23170U   26171.42410618  .00010483  00000-0  39110-3 0  9990
2 58224  43.0134 333.8213 0004140 260.2038  99.8347 15.27479184146011
Epoch: 2026-06-20T10:10Z
TLE epoch observation values (Epoch: 2026-06-20T10:10:42.773Z)
Latitude
Longitude
-87.49585°
Altitude
483.614 km
Speed
7.625 km/s
True Right ascension
22h 15m 17s
True Declination
0° 00' 00"
Sunlit
Object was in full shadow at epoch
Visualization orbit readout
Latitude
Unknown
Longitude
Unknown
Altitude
Unknown
Speed
Unknown
Apparent Right ascension
Unknown
Apparent Declination
Unknown
Sunlit
N/A
Visualization observer readout
Local Sidereal Time
21:31:19
Azimuth
Unknown
Elevation
Unknown
Doppler factor
Unknown
Orbital elements
Apogee altitude
488.135 km
Perigee altitude
482.452 km
Semi-major axis
6,863.431 km
Eccentricity
0.00041
Inclination
43.0134°
RAAN
333.8213°
Arg. of periapsis
260.2038°
True anomaly
99.88144°
Mean anomaly
99.8347°
Eccentric anomaly
99.85807°
Mean motion
3.81708 °/min
Orbital period
94.31 mins
BSTAR
0.0003911
Loading maneuver chart data...
Computing Atmospheric mass density...
Loading historical data...
Loading historical data...
Loading historical data...
Loading historical data...
Loading historical data...
Loading historical data...
Loading historical data...

Documentation

Showing up to 5 results
|